Weather reports worldwide

Advertisment
Mierkenis, Sweden (2121): temperature & dewpoint: 05.07.2020 17:00:00 - 11.07.2020 17:00:00 (CEST)Mierkenis, Sweden (2121): wind speed & gusts: 05.07.2020 17:00:00 - 11.07.2020 17:00:00 (CEST)Mierkenis, Sweden (2121): wind direction: 05.07.2020 17:00:00 - 11.07.2020 17:00:00 (CEST)Mierkenis, Sweden (2121): reduced air pressure: 05.07.2020 17:00:00 - 11.07.2020 17:00:00 (CEST)Mierkenis, Sweden (2121): visibility: 05.07.2020 17:00:00 - 11.07.2020 17:00:00 (CEST)Mierkenis, Sweden (2121): precipitation: 05.07.2020 17:00:00 - 11.07.2020 17:00:00 (CEST)
Date & Time tt [°C] td [°C] ff [km/h] ff [kn] fx [km/h] fx [kn] dd ppp [hPa] vv [km] rr [mm]
11.07.2020 17:00:00 - - - - - - - - - -
11.07.2020 16:00:00 15,3 1,8 10 5 23 12 W 1005,7 44 0,0
11.07.2020 15:00:00 14,9 0,3 9 5 17 9 WSW 1005,9 39 0,0
11.07.2020 14:00:00 14,2 -0,2 9 5 22 12 W 1006,2 41 0,0
11.07.2020 13:00:00 14,3 0,2 9 5 19 10 N 1006,1 42 0,0
11.07.2020 12:00:00 14,2 1,8 8 4 17 9 WSW 1006,2 40 0,0
11.07.2020 11:00:00 14,0 1,6 8 4 19 10 NW 1006,3 50 0,0
11.07.2020 10:00:00 10,5 1,1 8 4 14 8 WSW 1007,3 49 0,0
11.07.2020 09:00:00 11,4 1,6 6 4 19 10 W 1007,0 46 0,0
11.07.2020 08:00:00 10,9 1,7 7 4 10 6 NNE 1007,3 48 0,0
11.07.2020 07:00:00 6,9 5,4 5 3 9 5 SW 1008,6 50 0,0
11.07.2020 06:00:00 4,1 4,0 5 3 12 6 NNW 1009,6 23 0,0
11.07.2020 05:00:00 1,6 1,3 5 3 8 4 NW 1009,9 11 0,0
11.07.2020 04:00:00 2,6 2,2 5 3 10 5 WNW 1009,8 15 0,0
11.07.2020 03:00:00 1,9 1,6 2 1 5 3 NW 1010,0 13 0,0
11.07.2020 02:00:00 2,5 1,9 0 0 6 4 N 1009,8 13 0,0
11.07.2020 01:00:00 3,5 2,9 5 3 11 6 NW 1009,5 32 0,0
11.07.2020 00:00:00 3,0 2,3 4 2 9 5 N 1009,5 31 0,0
10.07.2020 23:00:00 5,9 3,7 2 1 16 9 W 1008,7 50 0,0
10.07.2020 22:00:00 9,2 3,8 7 4 14 8 N 1007,6 50 0,0
10.07.2020 21:00:00 9,7 3,2 8 5 19 10 WNW 1007,2 50 0,0
10.07.2020 20:00:00 10,4 3,0 8 4 21 11 WNW 1006,8 50 0,0
10.07.2020 19:00:00 10,5 3,1 10 5 22 12 NNW 1006,9 46 0,0
10.07.2020 18:00:00 11,1 4,3 10 6 26 14 NW 1006,8 37 0,0
10.07.2020 17:00:00 10,1 4,5 14 7 23 13 NNW 1007,1 28 0,0
10.07.2020 16:00:00 10,7 3,9 14 7 - - NW 1006,7 50 0,0
10.07.2020 15:00:00 10,5 3,8 13 7 25 14 NW 1006,8 50 0,0
10.07.2020 14:00:00 11,3 4,1 12 7 29 15 NW 1006,4 50 0,0
10.07.2020 13:00:00 11,7 4,9 12 6 28 15 NW 1006,4 38 0,0
10.07.2020 12:00:00 9,8 4,2 9 5 27 15 NW 1007,0 45 0,0
10.07.2020 11:00:00 9,6 3,6 14 7 26 14 NW 1006,8 50 0,0
10.07.2020 10:00:00 9,2 3,4 11 6 27 15 WNW 1006,8 48 0,0
10.07.2020 09:00:00 9,2 3,2 10 5 26 14 NW 1006,7 50 0,0
10.07.2020 08:00:00 8,0 3,6 14 8 29 16 WNW 1007,3 48 0,0
10.07.2020 07:00:00 7,4 3,3 12 7 31 17 WNW 1007,4 50 0,0
10.07.2020 06:00:00 7,2 3,3 10 5 25 13 NW 1007,5 50 0,0
10.07.2020 05:00:00 6,6 3,2 11 6 24 13 WNW 1007,8 50 0,0
10.07.2020 04:00:00 6,5 3,3 9 5 24 13 NW 1008,0 50 0,0
10.07.2020 03:00:00 6,2 3,4 9 5 22 12 NNW 1008,3 50 0,0
10.07.2020 02:00:00 6,0 4,0 11 6 22 12 NNW 1008,4 50 0,0
10.07.2020 01:00:00 5,6 3,9 10 5 16 9 NNW 1008,5 50 0,0
10.07.2020 00:00:00 6,0 3,0 8 4 17 9 NNW 1008,4 50 0,0
09.07.2020 23:00:00 5,9 2,2 11 6 20 11 NNW 1008,3 50 0,0
09.07.2020 22:00:00 7,3 2,2 9 5 23 12 NW 1007,9 50 0,0
09.07.2020 21:00:00 9,1 1,7 14 7 29 15 NW 1007,3 50 0,0
09.07.2020 20:00:00 10,2 1,0 16 9 31 17 NW 1007,0 50 0,0
09.07.2020 19:00:00 11,2 0,9 18 10 31 17 NW 1006,6 46 0,0
09.07.2020 18:00:00 10,7 0,1 15 8 28 15 NNW 1006,9 50 0,0
09.07.2020 17:00:00 11,4 0,5 12 6 27 15 NW 1006,7 45 0,0
09.07.2020 16:00:00 12,3 0,1 11 6 29 15 NNW 1006,3 50 0,0
09.07.2020 15:00:00 12,4 1,4 13 7 23 13 NNW 1006,3 50 0,0
09.07.2020 14:00:00 12,0 - 13 7 23 12 NW 1006,3 39 0,0
09.07.2020 13:00:00 12,2 - 16 9 26 14 NW 1005,9 37 0,0
09.07.2020 12:00:00 12,4 - 11 6 19 11 W 1005,8 40 0,0
09.07.2020 11:00:00 12,3 - 8 4 20 11 WNW 1006,0 43 0,0
09.07.2020 10:00:00 10,4 - 11 6 21 12 NNW 1006,4 45 0,0
09.07.2020 09:00:00 11,1 - 12 6 21 12 NW 1006,1 29 0,0
09.07.2020 08:00:00 9,8 - 9 5 28 15 NNW 1006,3 46 0,0
09.07.2020 07:00:00 8,5 - 11 6 21 11 N 1006,3 50 0,0
09.07.2020 06:00:00 5,9 - 9 5 19 11 NNW 1007,2 50 0,0
09.07.2020 05:00:00 4,0 - 9 5 15 8 WNW 1007,6 50 0,0
09.07.2020 04:00:00 1,9 - 0 0 13 7 N 1008,3 41 0,0
09.07.2020 03:00:00 3,6 - 10 5 15 8 W 1007,8 50 0,0
09.07.2020 02:00:00 3,9 - 10 5 19 10 W 1007,5 50 0,0
09.07.2020 01:00:00 4,9 - 12 7 20 11 NW 1007,1 50 0,0
09.07.2020 00:00:00 4,1 - 6 4 15 8 WNW 1007,2 50 0,0
08.07.2020 23:00:00 6,1 - 6 3 29 16 WNW 1006,4 50 0,0
08.07.2020 22:00:00 8,4 - 16 8 25 14 NNW 1005,2 50 0,0
08.07.2020 21:00:00 9,5 - 10 6 23 12 NW 1004,4 50 0,0
08.07.2020 20:00:00 11,7 - 12 7 23 13 NW 1003,7 50 0,0
08.07.2020 19:00:00 11,5 - 10 5 24 13 NW 1003,6 50 0,0
08.07.2020 18:00:00 12,4 - 11 6 23 13 NW 1003,2 40 0,0
08.07.2020 17:00:00 12,5 - 12 6 23 12 W 1003,0 47 0,0
08.07.2020 16:00:00 11,6 - 9 5 24 13 NNW 1003,1 46 0,0
08.07.2020 15:00:00 11,8 - 10 5 26 14 NNW 1002,9 41 0,0
08.07.2020 14:00:00 12,1 - 8 4 21 11 W 1002,8 47 0,0
08.07.2020 13:00:00 10,9 - 12 7 25 13 NW 1003,1 40 0,0
08.07.2020 12:00:00 10,2 - 11 6 22 12 NNW 1002,9 43 0,0
08.07.2020 11:00:00 9,6 - 7 4 21 11 NW 1003,1 44 0,0
08.07.2020 10:00:00 9,2 - 6 4 15 8 W 1003,1 50 0,0
08.07.2020 09:00:00 7,8 - 8 4 21 11 NNW 1003,2 50 0,0
08.07.2020 08:00:00 7,1 - 9 5 20 11 NW 1003,3 50 0,0
08.07.2020 07:00:00 6,7 - 9 5 18 10 NW 1003,2 50 0,0
08.07.2020 06:00:00 6,0 - 9 5 21 11 NNW 1003,5 49 0,0
08.07.2020 05:00:00 4,6 - 10 6 30 16 NNW 1004,0 50 0,0
08.07.2020 04:00:00 5,0 - 14 8 23 13 N 1003,7 50 0,0
08.07.2020 03:00:00 4,3 - 11 6 19 10 NW 1004,1 50 0,0
08.07.2020 02:00:00 4,3 - 8 4 16 9 NNW 1004,4 50 0,0
08.07.2020 01:00:00 5,5 - 8 4 14 8 NNW 1004,0 50 0,0
08.07.2020 00:00:00 5,8 - 6 4 16 9 NNW 1003,8 50 0,0
07.07.2020 23:00:00 6,2 - 9 5 22 12 NW 1003,2 50 0,0
07.07.2020 22:00:00 6,6 - 11 6 23 12 NW 1003,1 50 0,0
07.07.2020 21:00:00 7,3 - 11 6 30 16 WNW 1002,6 50 0,0
07.07.2020 20:00:00 9,1 - 13 7 29 16 NW 1001,9 50 0,0
07.07.2020 19:00:00 8,9 - 16 8 27 15 NW 1001,8 46 0,0
07.07.2020 18:00:00 8,9 - 13 7 23 13 NW 1001,6 50 0,0
07.07.2020 17:00:00 9,1 - 12 7 29 15 NW 1001,4 50 0,0
07.07.2020 16:00:00 9,6 - 13 7 30 16 NW 1000,7 50 0,0
07.07.2020 15:00:00 9,7 - 15 8 29 16 NW 1000,1 17 0,0
07.07.2020 14:00:00 9,8 - 14 8 33 18 NW 999,6 13 0,0
07.07.2020 13:00:00 11,1 - 13 7 29 16 NW 998,8 45 0,0
07.07.2020 12:00:00 10,9 - 11 6 27 15 NW 998,4 40 0,0
07.07.2020 11:00:00 10,6 - 14 8 28 15 NW 997,9 49 0,0
07.07.2020 10:00:00 10,2 - 13 7 28 15 WNW 997,6 49 0,0
07.07.2020 09:00:00 10,9 - 13 7 29 16 NNW 996,9 41 0,0
07.07.2020 08:00:00 9,6 - 13 7 27 15 WNW 996,8 42 0,0
07.07.2020 07:00:00 9,6 - 16 9 33 18 NW 996,5 40 0,0
07.07.2020 06:00:00 8,8 - 14 8 29 16 NW 996,3 42 0,0
07.07.2020 05:00:00 5,8 - 9 5 22 12 NNW 996,8 45 0,0
07.07.2020 04:00:00 5,6 - 16 9 25 13 NNW 996,3 50 0,0
07.07.2020 03:00:00 5,5 - 16 9 38 21 NW 995,8 49 0,0
07.07.2020 02:00:00 6,2 - 19 10 35 19 N 994,9 50 0,0
07.07.2020 01:00:00 6,8 - 16 9 28 15 NNW 994,2 50 0,0
07.07.2020 00:00:00 8,3 - 15 8 29 16 NNW 993,2 50 0,0
06.07.2020 23:00:00 8,9 - 13 7 22 12 N 992,4 50 0,0
06.07.2020 22:00:00 10,0 - 10 5 25 14 NW 991,7 50 0,0
06.07.2020 21:00:00 12,0 - 13 7 28 15 WNW 990,5 50 0,0
06.07.2020 20:00:00 12,5 - 14 7 27 15 NW 989,9 50 0,0
06.07.2020 19:00:00 14,2 - 18 10 33 18 NNW 989,1 46 0,0
06.07.2020 18:00:00 15,5 - 14 8 36 19 NNW 988,4 50 0,0
06.07.2020 17:00:00 16,1 - 15 8 31 17 NW 988,0 46 0,0
06.07.2020 16:00:00 16,8 - 12 6 24 13 NW 987,7 47 0,0
06.07.2020 15:00:00 15,6 - 7 4 22 12 WNW 987,7 40 0,0
06.07.2020 14:00:00 14,8 - 9 5 28 15 N 987,8 43 0,0
06.07.2020 13:00:00 14,2 - 15 8 29 15 NNW 988,0 39 0,0
06.07.2020 12:00:00 14,1 - 7 4 13 7 SW 987,9 39 0,0
06.07.2020 11:00:00 12,0 - 6 3 10 5 N 988,7 50 0,0
06.07.2020 10:00:00 11,3 - 6 3 16 9 SE 989,0 46 0,0
06.07.2020 09:00:00 11,1 - 10 6 19 10 SE 989,2 48 0,0
06.07.2020 08:00:00 11,1 - 8 4 15 8 SE 989,2 49 0,0
06.07.2020 07:00:00 9,9 - 2 1 5 3 SE 989,9 44 0,0
06.07.2020 06:00:00 5,9 - 3 2 8 4 NW 991,3 50 0,0
06.07.2020 05:00:00 3,3 - 4 2 11 6 WNW 992,3 50 0,0
06.07.2020 04:00:00 1,7 - 3 2 8 5 NNW 992,9 49 0,0
06.07.2020 03:00:00 0,9 - 6 3 11 6 NW 993,4 50 0,0
06.07.2020 02:00:00 1,2 - 8 4 10 5 NNW 993,2 50 0,0
06.07.2020 01:00:00 2,1 - 7 4 9 5 NW 993,3 50 0,0
06.07.2020 00:00:00 3,5 - 5 3 8 5 NW 993,3 50 0,0
05.07.2020 23:00:00 6,6 - 3 2 10 5 SSW 992,7 50 0,0
05.07.2020 22:00:00 11,0 - 5 3 13 7 SE 991,6 50 0,0
05.07.2020 21:00:00 12,4 - 8 5 19 10 S 991,3 50 0,0
05.07.2020 20:00:00 13,4 - 6 4 15 8 S 991,6 50 0,0
05.07.2020 19:00:00 13,5 - 6 3 15 8 SSE 992,1 42 0,0
05.07.2020 18:00:00 13,7 - 6 3 16 9 SSW 992,8 41 0,0
05.07.2020 17:00:00 13,4 - 6 3 14 7 S 993,5 40 0,0

tt = temperature
td = dewpoint
ff = wind speed
fx = gusts
dd = wind direction
ppp = reduced air pressure
vv = visibility
rr = precipitation

Next stations